Orbital Elements
Epoch 2022 Sept. 18.0 TT = JDT 2459840.5
T 2022 Sept. 6.59611 TT Rudenko
q 2.1120578 (2000.0) P Q
n 0.14211806 Peri. 218.73923 +0.93230245 -0.35562615
a 3.6366643 Node 161.75757 +0.36144123 +0.90948060
e 0.4192321 Incl. 12.15177 +0.01312917 +0.21534876
P 6.94
From 102 observations 2008 Oct. 1-2022 Aug. 24, mean residual 0".6.
|